GW3252 Weather Reports


Display with metric or nautical units.
time (UTC)temp
F
wind
direction
speed
MPH
gust
MPH
rain 1hr
in
rain 24hr
in
rain mn
in
humidity
%
barometer
mb
20260505011153 70 198 0.0 0.0 0.00 0.00 0.00 53 1008.6
20260505010649 70 198 0.0 3.0 0.00 0.00 0.00 52 1008.6
20260505010130 70 198 1.0 5.0 0.00 0.00 0.00 52 1008.5
20260505005627 71 214 1.0 5.0 0.00 0.00 0.00 51 1008.5
20260505005121 71 188 0.0 3.0 0.00 0.00 0.00 51 1008.5
20260505004618 71 194 0.0 3.0 0.00 0.00 0.00 50 1008.4
20260505004119 72 196 1.0 6.0 0.00 0.00 0.00 51 1008.4
20260505003606 72 209 2.0 6.0 0.00 0.00 0.00 49 1008.5
20260505003109 73 175 1.0 5.0 0.00 0.00 0.00 49 1008.5
20260505002600 73 180 1.0 4.0 0.00 0.00 0.00 48 1008.5
20260505002102 74 240 1.0 4.0 0.00 0.00 0.00 48 1008.4
20260505001552 74 323 1.0 6.0 0.00 0.00 0.00 46 1008.5
20260505001047 75 119 1.0 6.0 0.00 0.00 0.00 46 1008.4
20260505000544 75 198 2.0 8.0 0.00 0.00 0.00 45 1008.5
20260505000039 75 165 2.0 8.0 0.00 0.00 0.00 45 1008.4
20260504235535 76 138 1.0 5.0 0.00 0.00 0.00 46 1008.4
20260504235035 76 236 1.0 9.0 0.00 0.00 0.00 45 1008.5
20260504234535 76 228 2.0 9.0 0.00 0.00 0.00 44 1008.5
20260504234024 77 348 1.0 4.0 0.00 0.00 0.00 45 1008.5
20260504233523 77 199 1.0 5.0 0.00 0.00 0.00 44 1008.6
20260504233246 77 209 3.0 7.0 0.00 0.00 0.00 43 1008.6
20260504232522 78 223 3.0 8.0 0.00 0.00 0.00 42 1008.6
20260504232025 78 301 3.0 10.0 0.00 0.00 0.00 42 1008.7
20260504231521 78 184 3.0 10.0 0.00 0.00 0.00 42 1008.6
20260504231019 78 236 3.0 9.0 0.00 0.00 0.00 43 1008.8
20260504230514 79 141 3.0 8.0 0.00 0.00 0.00 43 1008.8
20260504230016 79 257 2.0 7.0 0.00 0.00 0.00 42 1008.7
20260504225511 79 156 2.0 7.0 0.00 0.00 0.00 43 1008.7
20260504225010 79 145 3.0 7.0 0.00 0.00 0.00 41 1008.7
20260504224512 79 276 3.0 11.0 0.00 0.00 0.00 40 1008.7
20260504224014 80 267 4.0 13.0 0.00 0.00 0.00 39 1008.7
20260504223512 80 199 3.0 13.0 0.00 0.00 0.00 39 1008.8
20260504223010 80 190 2.0 9.0 0.00 0.00 0.00 41 1008.8
20260504222730 80 188 2.0 9.0 0.00 0.00 0.00 42 1008.8
20260504222001 80 355 2.0 9.0 0.00 0.00 0.00 44 1008.6
20260504221500 80 217 2.0 7.0 0.00 0.00 0.00 41 1008.8
20260504221425 80 336 3.0 9.0 0.00 0.00 0.00 43 1008.7
20260504221046 80 336 3.0 8.0 0.00 0.00 0.00 42 1008.7
20260504215955 80 244 4.0 11.0 0.00 0.00 0.00 42 1008.7
20260504215451 80 150 3.0 11.0 0.00 0.00 0.00 42 1008.6
20260504214944 80 220 3.0 12.0 0.00 0.00 0.00 43 1008.7
20260504214441 80 264 4.0 13.0 0.00 0.00 0.00 43 1008.7
20260504213936 80 180 3.0 13.0 0.00 0.00 0.00 40 1008.7
20260504213431 81 146 3.0 11.0 0.00 0.00 0.00 43 1008.8
20260504212931 81 161 3.0 11.0 0.00 0.00 0.00 40 1008.8
20260504212430 81 192 3.0 10.0 0.00 0.00 0.00 45 1008.8
20260504211928 81 310 4.0 10.0 0.00 0.00 0.00 42 1008.9
20260504211430 81 146 3.0 9.0 0.00 0.00 0.00 42 1009.0
20260504210933 81 178 3.0 18.0 0.00 0.00 0.00 45 1009.1
20260504210650 80 115 4.0 18.0 0.00 0.00 0.00 43 1009.1
20260504210152 80 194 4.0 10.0 0.00 0.00 0.00 40 1009.0
20260504205426 81 247 3.0 10.0 0.00 0.00 0.00 44 1009.1
20260504204933 80 312 4.0 11.0 0.00 0.00 0.00 46 1009.2
20260504204645 80 281 4.0 11.0 0.00 0.00 0.00 44 1009.2
20260504204151 80 255 3.0 10.0 0.00 0.00 0.00 43 1009.2
20260504203641 80 202 4.0 14.0 0.00 0.00 0.00 44 1009.3
20260504203406 80 93 4.0 15.0 0.00 0.00 0.00 42 1009.4
20260504202407 80 175 4.0 15.0 0.00 0.00 0.00 43 1009.5
20260504201908 80 172 4.0 12.0 0.00 0.00 0.00 43 1009.6
20260504201402 80 188 4.0 12.0 0.00 0.00 0.00 43 1009.7
20260504200905 80 217 3.0 9.0 0.00 0.00 0.00 42 1009.7
20260504200405 80 76 3.0 13.0 0.00 0.00 0.00 44 1009.9
20260504195904 80 171 4.0 13.0 0.00 0.00 0.00 42 1010.0
20260504195402 80 321 4.0 10.0 0.00 0.00 0.00 42 1009.9
20260504194904 80 294 4.0 13.0 0.00 0.00 0.00 46 1010.2
20260504194359 80 115 4.0 13.0 0.00 0.00 0.00 44 1010.3
20260504193903 80 227 4.0 11.0 0.00 0.00 0.00 42 1010.3
20260504193400 80 315 4.0 13.0 0.00 0.00 0.00 44 1010.3
20260504192856 80 85 5.0 13.0 0.00 0.00 0.00 42 1010.4
20260504192622 80 141 5.0 13.0 0.00 0.00 0.00 44 1010.5
20260504191859 80 240 4.0 13.0 0.00 0.00 0.00 46 1010.5
20260504191841 80 225 4.0 13.0 0.00 0.00 0.00 44 1010.6
20260504190857 80 234 4.0 13.0 0.00 0.00 0.00 45 1010.7
20260504190354 79 228 3.0 9.0 0.00 0.00 0.00 46 1010.8
20260504185848 79 198 3.0 9.0 0.00 0.00 0.00 49 1010.8
20260504185341 79 188 4.0 13.0 0.00 0.00 0.00 50 1010.9
20260504185103 78 168 3.0 13.0 0.00 0.00 0.00 45 1010.9
20260504184337 78 0 2.0 9.0 0.00 0.00 0.00 46 1011.0
20260504183834 78 254 3.0 11.0 0.00 0.00 0.00 45 1011.1
20260504183334 78 300 4.0 12.0 0.00 0.00 0.00 44 1011.2
20260504182839 79 309 3.0 12.0 0.00 0.00 0.00 42 1011.2
20260504182327 79 207 3.0 13.0 0.00 0.00 0.00 47 1011.3
20260504181827 79 201 4.0 13.0 0.00 0.00 0.00 43 1011.1
20260504181543 80 203 4.0 12.0 0.00 0.00 0.00 44 1011.4
20260504180824 80 269 3.0 12.0 0.00 0.00 0.00 50 1011.3
20260504180322 79 259 4.0 13.0 0.00 0.00 0.00 45 1011.3
20260504175819 79 304 4.0 13.0 0.00 0.00 0.00 47 1011.3
20260504175319 79 236 3.0 8.0 0.00 0.00 0.00 47 1011.5
20260504174816 79 247 3.0 10.0 0.00 0.00 0.00 48 1011.4
20260504174317 79 260 4.0 12.0 0.00 0.00 0.00 47 1011.6
20260504173817 78 261 4.0 12.0 0.00 0.00 0.00 48 1011.6
20260504173315 78 260 3.0 8.0 0.00 0.00 0.00 48 1011.7
20260504173043 78 187 3.0 9.0 0.00 0.00 0.00 51 1011.7
20260504172312 77 233 4.0 12.0 0.00 0.00 0.00 49 1011.6
20260504171809 77 277 4.0 12.0 0.00 0.00 0.00 46 1011.8
20260504171307 77 220 4.0 12.0 0.00 0.00 0.00 45 1012.0
20260504170801 78 286 4.0 12.0 0.00 0.00 0.00 45 1012.0
20260504170308 78 290 3.0 10.0 0.00 0.00 0.00 46 1012.0
20260504160236 75 301 3.0 11.0 0.00 0.00 0.00 57 1012.8
20260504150713 72 281 2.0 7.0 0.00 0.00 0.00 64 1013.0
20260504150213 72 240 2.0 7.0 0.00 0.00 0.00 65 1013.0
20260504141202 69 246 2.0 5.0 0.00 0.00 0.00 67 1012.9
20260504140658 68 165 1.0 5.0 0.00 0.00 0.00 68 1012.9
20260504140157 67 209 1.0 4.0 0.00 0.00 0.00 70 1013.0
20260504130640 61 263 0.0 4.0 0.00 0.00 0.00 79 1012.6
20260504130137 61 188 0.0 0.0 0.00 0.00 0.00 77 1012.6
20260504110440 57 210 0.0 2.0 0.00 0.00 0.00 77 1011.8
20260504110123 57 271 0.0 2.0 0.00 0.00 0.00 76 1011.8
20260504100557 58 158 1.0 7.0 0.00 0.00 0.00 74 1012.1
20260504081611 54 153 1.0 3.0 0.00 0.00 0.00 81 1012.3
20260504081056 54 194 0.0 2.0 0.00 0.00 0.00 81 1012.3
20260504080749 54 194 0.0 0.0 0.00 0.00 0.00 82 1012.4
20260504080632 54 195 0.0 1.0 0.00 0.00 0.00 82 1012.4
20260504070406 54 193 0.0 0.0 0.00 0.00 0.00 80 1012.7
20260504050614 55 180 0.0 2.0 0.00 0.00 0.00 74 1013.9
20260504045548 55 181 0.0 2.0 0.00 0.00 0.00 74 1013.9
20260504045312 55 181 0.0 2.0 0.00 0.00 0.00 74 1013.8
20260504044526 55 182 0.0 0.0 0.00 0.00 0.00 74 1013.9
20260504044006 55 182 0.0 4.0 0.00 0.00 0.00 74 1013.9
20260504043510 55 182 0.0 4.0 0.00 0.00 0.00 74 1013.9
20260504043003 55 302 0.0 0.0 0.00 0.00 0.00 74 1013.9
20260504042500 55 303 0.0 0.0 0.00 0.00 0.00 74 1013.8
20260504041951 55 303 0.0 0.0 0.00 0.00 0.00 74 1013.9
20260504041436 55 302 0.0 0.0 0.00 0.00 0.00 74 1013.8
20260504040911 55 302 0.0 0.0 0.00 0.00 0.00 75 1013.9
20260504040414 55 302 0.0 0.0 0.00 0.00 0.00 75 1014.0
20260504040140 55 321 0.0 0.0 0.00 0.00 0.00 75 1013.9
20260504035357 55 321 0.0 1.0 0.00 0.00 0.00 75 1014.1
20260504034823 55 322 0.0 2.0 0.00 0.00 0.00 76 1014.1
20260504034323 54 322 0.0 2.0 0.00 0.00 0.00 76 1014.2
20260504033813 54 304 0.0 0.0 0.00 0.00 0.00 76 1014.2
20260504033311 54 304 0.0 0.0 0.00 0.00 0.00 77 1014.2
20260504032808 54 304 0.0 0.0 0.00 0.00 0.00 77 1014.3
20260504032307 54 304 0.0 0.0 0.00 0.00 0.00 78 1014.4
20260504031804 54 304 0.0 0.0 0.00 0.00 0.00 79 1014.5
20260504031305 54 304 0.0 0.0 0.00 0.00 0.00 79 1014.5
20260504030805 54 304 0.0 0.0 0.00 0.00 0.00 80 1014.5
20260504030257 54 304 0.0 0.0 0.00 0.00 0.00 80 1014.4
20260504025802 54 304 0.0 0.0 0.00 0.00 0.00 80 1014.5
20260504025248 54 304 0.0 0.0 0.00 0.00 0.00 80 1014.4
20260504024726 54 304 0.0 0.0 0.00 0.00 0.00 79 1014.3
20260504024223 54 304 0.0 0.0 0.00 0.00 0.00 79 1014.2
20260504023930 55 304 0.0 0.0 0.00 0.00 0.00 78 1014.3
20260504023205 55 304 0.0 0.0 0.00 0.00 0.00 78 1014.3
20260504022657 55 304 0.0 0.0 0.00 0.00 0.00 77 1014.3
20260504022139 55 304 0.0 0.0 0.00 0.00 0.00 77 1014.2
20260504021632 56 304 0.0 0.0 0.00 0.00 0.00 76 1014.0
20260504021122 56 304 0.0 0.0 0.00 0.00 0.00 76 1014.1
20260504020858 56 304 0.0 0.0 0.00 0.00 0.00 75 1014.2
20260504020107 56 304 0.0 0.0 0.00 0.00 0.00 75 1014.1
20260504015602 57 304 0.0 0.0 0.00 0.00 0.00 74 1014.1
20260504015041 57 304 0.0 0.0 0.00 0.00 0.00 73 1014.0
20260504014543 57 304 0.0 0.0 0.00 0.00 0.00 72 1013.9
20260504014018 58 304 0.0 0.0 0.00 0.00 0.00 71 1013.9
20260504013523 58 304 0.0 0.0 0.00 0.00 0.00 69 1013.9
20260504013014 59 304 0.0 0.0 0.00 0.00 0.00 68 1013.8
20260504012504 60 304 0.0 0.0 0.00 0.00 0.00 67 1014.0
20260504012005 60 304 0.0 0.0 0.00 0.00 0.00 66 1014.0